Location: Hackbridge
(51.3833°N, 0.1500°W)
Time: 06:43:54
(UTC+00:00)

Cosmos 839 Rocket - Pass Details

Date: 13 October 2019
Orbit: 968 x 2084 km, 65.9° (Epoch: 12 November)

Event Time Altitude Azimuth Distance (km) Brightness Sun altitude
Rises 17:42:54 0° 318° (NW) 3,712 7.6 -5.5°
Reaches altitude 10° 17:45:34 10° 324° (NW) 2,728 6.8 -5.9°
Maximum altitude 17:51:33 49° 39° (NE) 1,259 4.4 -6.9°
Drops below altitude 10° 17:57:52 10° 114° (ESE) 2,886 5.9 -7.8°
Enters shadow 17:59:24 - 117° (ESE) 3,447 6.3 -8.1°
